DW6267 Weather Reports


Display with metric or nautical units.
time (UTC)temp
F
wind
direction
speed
MPH
gust
MPH
rain 1hr
in
rain 24hr
in
rain mn
in
humidity
%
barometer
mb
20260903220337 62 279 0.0 0.0 0.00 0.00 0.01 42 1005.5
20260903210356 58 20 0.0 0.0 0.00 0.00 0.01 56 1006.9
20260903200341 56 144 0.0 0.0 0.00 0.00 0.01 75 1006.3
20260903190405 56 144 0.0 0.0 0.00 0.00 0.01 61 1006.5
20260903180347 52 144 0.0 0.0 0.00 0.00 0.01 74 1007.2
20260903170404 50 246 0.0 0.0 0.00 0.00 0.01 81 1006.2
20260903160343 43 246 0.0 0.0 0.00 0.00 0.01 100 1007.5
20260903150338 39 246 0.0 0.0 0.00 0.00 0.01 100 1007.0
20260903140340 38 246 0.0 0.0 0.00 0.00 0.01 100 1007.9
20260903130335 40 246 0.0 0.0 0.00 0.00 0.01 100 1007.0
20260903120349 43 246 0.0 0.0 0.00 0.00 0.00 100 1006.6
20260903110350 46 246 0.0 0.0 0.00 0.00 0.00 100 1006.0
20260903100352 47 246 0.0 0.0 0.00 0.00 0.00 100 1005.8
20260903090340 49 246 0.0 0.0 0.00 0.00 0.00 100 1005.5
20260903080357 49 246 0.0 0.0 0.00 0.00 0.00 100 1006.0
20260903070332 49 246 0.0 0.0 0.00 0.00 0.00 100 1004.6
20260903060337 49 246 0.0 0.0 0.00 0.00 0.13 100 1004.9
20260903050337 49 246 0.0 0.0 0.00 0.00 0.13 100 1004.1
20260903040343 50 246 0.0 0.0 0.00 0.00 0.12 100 1003.8
20260903030355 50 246 0.0 0.0 0.00 0.00 0.12 100 1004.0
20260903020339 52 246 0.0 0.0 0.00 0.00 0.12 99 1003.8
20260903010336 55 251 0.0 0.0 0.00 0.00 0.02 84 1002.1
20260903000340 58 84 0.0 0.0 0.00 0.00 0.00 81 1002.3
20260902230348 60 84 0.0 0.0 0.00 0.00 0.00 64 1001.8